Regional Weather Roundup
Issued by NWS San Diego, CA

Home | Current Version | Previous Version | Text Only | Print | Product List | Glossary On
Versions: 1 2 3 4 5 6 7 8 9 10 11 12 13 14 15 16 17 18 19 20 21 22 23 24 25 26 27
000
ASUS46 KSGX 301711
RWRSGX

SAN DIEGO HOURLY WEATHER ROUNDUP
NATIONAL WEATHER SERVICE SAN DIEGO CA
1000 AM PDT SAT APR 30 2016

NOTE: "FAIR" INDICATES FEW OR NO CLOUDS BELOW 12,000 FEET WITH NO
SIGNIFICANT WEATHER AND/OR OBSTRUCTIONS TO VISIBILITY.

CAZ042-043-060-061-PZZ750-775-301800-

GREATER SAN DIEGO AREA

CITY           SKY/WX    TMP DP  RH WIND       PRES   REMARKS
LINDBERGH FLD  LGT RAIN  58  51  78 SW12      29.85F
POINT LOMA       N/A     59  56  91 S10         N/A
NATIONAL CITY    N/A     59  52  77 SW12      29.84F
CHULA VISTA      N/A     58  53  82 SW8       29.77F
IMPERIAL BEACH CLOUDY    61  48  62 S10       29.86F
BROWN FIELD    CLOUDY    57  48  72 SW9       29.85S
MIRAMAR MCAS   CLOUDY    59  51  75 S8        29.85F
MONTGOMERY FLD CLOUDY    55  50  83 S9        29.84F

$$

NORTH SAN DIEGO COUNTY

CITY           SKY/WX    TMP DP  RH WIND       PRES   REMARKS
CAMP PENDLETON CLOUDY    60  49  66 SE10      29.84R
OCEANSIDE AP   CLOUDY    61  47  59 SE7       29.84R
OCEANSIDE HBR    N/A     60  53  77 S3        29.86S
VISTA            N/A     61  52  73 CALM      29.83S
CARLSBAD       CLOUDY    60  49  66 E8        29.84R
DEL MAR          N/A     61  54  76 CALM      29.86F
LA JOLLA SCRIP   N/A     57  52  84 SE7       29.84F
FALLBROOK        N/A     58  53  83 SE2       29.84R
SAN MARCOS       N/A     57  48  72 SE6       29.83S
POWAY            N/A     56  52  86 S3        29.86F

$$

EAST SAN DIEGO COUNTY

CITY           SKY/WX    TMP DP  RH WIND       PRES   REMARKS
RAMONA         CLOUDY    51  47  86 S12       29.84S
SANTEE LAKES     N/A     56  52  85 CALM      29.84F
LA MESA          N/A     55  53  93 SE2       29.77F
JAMUL            N/A     52  49  89 SE2       29.84F
DESCANSO N       N/A     45  43  91 CALM      29.72F
MT. LAGUNA OBS   N/A     33  33 100 W12       29.45  WCI  25
CAMPO            N/A     48  45  89 SW10      29.81S

$$

ORANGE COUNTY AND THE LOS ANGELES BASIN

CITY           SKY/WX    TMP DP  RH WIND       PRES   REMARKS
JOHN WAYNE AP  PTSUNNY   63  48  59 SW6       29.83F
LAKE FOREST FR   N/A     56  49  78 CALM      29.74F
HUNTINGTON BCH   N/A     64  55  73 SW3       29.85F
LOS ALAMITOS   FAIR      63  51  65 VRB2      29.83F
FULLERTON      MOSUNNY   63  50  62 VRB3      29.83F
LONG BEACH     MOSUNNY   61  51  70 CALM      29.84F
L.A. AP        PTSUNNY   60  50  69 SW6       29.84F
L.A. DOWNTOWN  MOSUNNY   66  50  56 CALM      29.82F

$$

THE INLAND EMPIRE

CITY           SKY/WX    TMP DP  RH WIND       PRES   REMARKS
CORONA         MOSUNNY   63  50  63 VRB3      29.83F
CHINO          PTSUNNY   62  47  57 CALM      29.84F
ONTARIO        PTSUNNY   56  51  84 W3        29.83F
SAN BERNARDINO CLOUDY    55  50  82 W3        29.84F FOG
RIVERSIDE AP   CLOUDY    57  52  83 CALM      29.84F
MORENO VALLEY    N/A     53  52  99 SW2       27.96F
MARCH ARB      CLOUDY    54  52  92 VRB5      29.83S
HORSETHIEF CYN   N/A     53  45  74 CALM      29.86R
PERRIS           N/A     54  50  86 SW7         N/A
HEMET EAST       N/A     52  45  76 CALM      29.72S
FRENCH VALLEY  CLOUDY    55  45  67 SW9       29.84S
TEMECULA         N/A     59  50  73 SW6       29.80F

$$

SAN BERNARDINO AND RIVERSIDE COUNTY MOUNTAINS

CITY           SKY/WX    TMP DP  RH WIND       PRES   REMARKS
BIG BEAR AP    LGT SNOW  34  32  93 CALM      29.84S
ANGELUS OAKS     N/A     40  37  89 CALM      29.69S
PINE COVE        N/A     38  38 100 NW3       29.73S

$$

SOUTHERN DESERT INCLUDING THE COACHELLA VALLEY

CITY           SKY/WX    TMP DP  RH WIND       PRES   REMARKS
PALM SPRINGS   PTSUNNY   70  43  37 NW14G29   29.73R
THOUSAND PALMS   N/A     67  44  43 W24       29.71S
PALM DESERT      N/A     71  46  41 N12       30.92S
THERMAL        MOSUNNY   72  43  35 NW23G29   29.69S
BLYTHE         CLOUDY    69  47  45 CALM      29.69S
IMPERIAL AP    SUNNY     72  39  30 W23G33    29.70S
EL CENTRO NAS  SUNNY     71  40  32 W30       29.73F
YUMA AZ        SUNNY     72  43  35 W12       29.70F
MEXICALI       SUNNY     70  37  30 NW26      29.71R

$$

UPPER DESERT

CITY           SKY/WX    TMP DP  RH WIND       PRES   REMARKS
VICTORVILLE AP CLOUDY    55  37  50 N12       29.83S
HESPERIA         N/A     52  41  66 NE5       29.92R
PALMDALE       MOSUNNY   60  38  43 N9        29.84F
LANCASTER      SUNNY     62  40  44 W14       29.84S
EDWARDS AFB    PTSUNNY   62  29  28 N24G31    29.80S
DAGGETT        CLOUDY    54  44  69 W7        29.82R
29 PALMS N     CLOUDY    60  37  42 NW22G30   29.83F
NEEDLES        LGT RAIN  65  46  50 N17       29.71S

$$

REGIONAL REPORTS

CITY           SKY/WX    TMP DP  RH WIND       PRES   REMARKS
SANTA BARBARA  SUNNY     61  46  57 SW9       29.85S
SANDBERG       MOSUNNY   49  40  71 N30G39    29.86F
LAS VEGAS NV   LGT RAIN  50  47  89 CALM      29.75S FOG
PHOENIX AZ     PTSUNNY   75  35  23 SE13G18   29.70F
TIJUANA        CLOUDY    59  43  55 W10       29.88S
ENSENADA NW      N/A     59  32  35 W1        29.87F

$$

OFFSHORE ISLANDS

CITY           SKY/WX    TMP DP  RH WIND       PRES   REMARKS
CATALINA ARPT  CLOUDY    53  49  86 VRB6      29.85S
SAN NICOLAS IS PTSUNNY  N/A N/A N/A NW22      29.86R

$$

MARINE AND OFFSHORE BUOY REPORTS

STATION/POSITION SKY/WX   TEMP    WIND        PRES    SWELL
                          AIR SEA DIR/SP/G            HT/PER/DIR
                          (F)     (DEG/KT/KT) (MB)    (FT/S/D)
TANNER BANKS               57 58  310/ 23/ 29 1011.2F  10/340/ 9
S CLEMENTE BASIN           57 61  280/ 19/ 23 1010.2S   5/270/12
SAN NICOLAS IS.               56                N/A     5/290/12
SO. S. ROSA ISLA           53 55  310/ 19/ 23 1011.5R   7/300/ 9
W. S. BARBARA CH           52 52  290/ 10/ 12 1011.2F  10/300/10
M. S. BARBARA CH           55 56  300/  6/ 10 1011.6F
S. MONICA BASIN            56 59  340/  6/  8 1011.4R   5/270/ 6
S PEDRO CHANNEL               61                N/A     2/280/13
OCEANSIDE OFFSHR              64                N/A     2/190/20
TORREY PINES OTR              64                N/A     2/240/14
LA JOLLA 1                 57 65  190/  8/  9 1010.7R
SAN DIEGO BAY                 67              1011.3S
POINT LOMA SOUTH              63                N/A     3/180/20

$$





USA.gov is the U.S. government's official web portal to all federal, state and local government web resources and services.